Temperature
-1 0 -0 -1 -1 -2 -2 -1 -0 0 0 2 1 0 1 1 1 1 1 0 0 -0 -0 -0 -0 -0 -0 -1 -1 -1 -1 -1 -1 -1 -0 -0 0 0 0 0 0 0 0 0
-1 -0 -1 -1 -1 -1 -1 -1 -1 -1 -0 1 1 1 1 1 1 0 0 0 -0 -0 -1 -1 -1 -1 -1 -1 -1 -1 -1 -1 -1 -1 -1 -1 -0 -0 -0 -0 -0 -0 -0 -0
-1 -1 -1 -0 -0 -1 -1 -2 -2 -0 0 0 -0 -0 0 0 0 0 0 -0 -0 -1 -1 -1 -1 -1 -1 -1 -1 -1 -1 -1 -1 -1 -1 -1 -1 -1 -1 -1 -1 -1 -1 -1
-2 -1 -0 1 -0 -1 -1 -1 -2 -1 -1 -1 -0 0 1 1 0 0 -0 -1 -1 -1 -1 -1 -1 -1 -1 -1 -1 -1 -1 -1 -1 -1 -1 -1 -1 -1 -1 -1 -1 -1 -1 -1
-3 -2 -1 0 -0 -1 -1 -1 -1 -2 -1 -1 -0 -1 -0 1 0 0 -0 -1 -1 -1 -1 -2 -2 -2 -1 -1 -2 -2 -2 -2 -2 -2 -2 -2 -2 -2 -2 -2 -2 -2 -2 -1
-3 -2 -1 1 0 -0 -0 -0 -0 -1 -1 -2 -2 -2 -1 1 0 -0 -1 -1 -1 -2 -2 -2 -2 -2 -2 -2 -2 -2 -2 -2 -2 -2 -2 -2 -2 -2 -2 -2 -2 -2 -2 -2
-4 -3 -2 -1 -1 -0 0 1 0 -0 -0 -1 -2 -1 0 -0 -1 -1 -1 -1 -2 -2 -2 -2 -2 -2 -2 -2 -2 -2 -2 -3 -2 -2 -3 -3 -3 -3 -3 -3 -2 -2 -2 -2
-4 -3 -1 -1 -2 -1 -0 0 0 0 0 -0 -0 -0 -0 -1 -1 -1 -1 -2 -2 -2 -2 -2 -2 -3 -3 -2 -2 -3 -3 -3 -3 -3 -3 -3 -3 -3 -3 -3 -3 -3 -3 -3
-3 -1 -1 -1 -0 1 0 0 0 -0 -0 -1 -1 -1 -1 -1 -2 -2 -2 -2 -2 -3 -3 -3 -3 -3 -3 -3 -3 -3 -3 -3 -3 -3 -3 -3 -3 -3 -3 -3 -3 -3 -3 -3
-4 -3 -2 -1 0 0 0 -0 -0 -0 -1 -1 -1 -2 -2 -2 -2 -2 -2 -3 -3 -3 -3 -3 -3 -3 -3 -3 -3 -3 -3 -3 -3 -3 -3 -3 -3 -4 -4 -4 -4 -4 -4 -4
-4 -4 -3 -1 0 1 0 -0 -1 -1 -1 -1 -2 -2 -2 -2 -2 -2 -3 -3 -3 -3 -3 -3 -3 -3 -3 -3 -3 -3 -3 -4 -4 -4 -4 -4 -4 -4 -4 -4 -4 -4 -4 -4
-3 -2 -3 -1 1 0 -0 -0 -1 -1 -1 -1 -2 -2 -2 -2 -2 -3 -3 -3 -3 -3 -3 -3 -3 -3 -3 -3 -4 -4 -4 -4 -4 -4 -4 -4 -4 -4 -4 -4 -4 -4 -5 -5
-0 0 -0 -0 -0 -1 -1 -1 -1 -1 -1 -2 -2 -2 -2 -3 -3 -3 -3 -3 -3 -4 -4 -4 -4 -4 -4 -4 -4 -4 -4 -4 -4 -4 -4 -4 -5 -5 -5 -5 -5 -5 -5 -5
-0 -1 -1 -1 -1 -1 -1 -1 -1 -2 -2 -2 -2 -2 -3 -3 -3 -3 -3 -4 -4 -4 -4 -4 -4 -4 -4 -4 -4 -4 -4 -4 -4 -5 -5 -5 -5 -5 -5 -5 -5 -5 -5 -5
-1 -1 -1 -1 -1 -1 -2 -2 -2 -2 -2 -2 -2 -3 -3 -3 -3 -3 -4 -4 -4 -4 -4 -4 -4 -4 -4 -4 -4 -4 -4 -4 -5 -5 -5 -5 -5 -5 -5 -5 -5 -5 -5 -5
-1 -1 -1 -2 -2 -2 -2 -2 -2 -2 -3 -3 -3 -3 -3 -3 -3 -3 -4 -4 -4 -4 -4 -4 -4 -4 -5 -5 -5 -5 -5 -5 -5 -5 -5 -5 -5 -5 -5 -5 -6 -6 -6 -6
-2 -2 -2 -2 -2 -2 -2 -2 -2 -3 -3 -3 -3 -3 -3 -3 -3 -4 -4 -4 -4 -4 -4 -4 -5 -5 -5 -5 -5 -5 -5 -5 -5 -5 -5 -5 -5 -6 -6 -6 -6 -6 -6 -6
-2 -2 -2 -2 -2 -2 -2 -3 -3 -3 -3 -3 -3 -3 -3 -3 -4 -4 -4 -4 -4 -4 -5 -5 -5 -5 -5 -5 -5 -5 -5 -5 -5 -5 -6 -6 -6 -6 -6 -6 -6 -6 -6 -6
-2 -2 -2 -2 -2 -2 -2 -2 -3 -3 -3 -3 -3 -3 -3 -4 -4 -4 -4 -4 -4 -5 -5 -5 -5 -5 -5 -5 -5 -5 -5 -5 -6 -6 -6 -6 -6 -6 -6 -6 -6 -6 -6 -6
-2 -2 -2 -2 -2 -2 -2 -3 -3 -3 -3 -3 -3 -3 -4 -4 -4 -4 -4 -4 -5 -5 -5 -5 -5 -5 -5 -5 -5 -5 -5 -6 -6 -6 -6 -6 -6 -6 -6 -6 -6 -6 -6 -6
-2 -2 -2 -2 -2 -3 -3 -3 -3 -3 -3 -3 -3 -3 -4 -4 -4 -4 -4 -5 -5 -5 -5 -5 -5 -5 -5 -5 -5 -6 -6 -6 -6 -6 -6 -6 -6 -6 -6 -6 -7 -7 -7 -7
-2 -2 -2 -2 -3 -3 -3 -3 -3 -3 -3 -3 -4 -4 -4 -4 -4 -5 -5 -5 -5 -5 -5 -5 -5 -5 -5 -6 -6 -6 -6 -6 -6 -6 -6 -6 -6 -6 -6 -6 -7 -7 -7 -6
-2 -3 -3 -3 -3 -3 -3 -3 -3 -3 -3 -3 -4 -4 -4 -4 -4 -5 -5 -5 -5 -5 -5 -6 -6 -6 -6 -6 -6 -6 -6 -6 -6 -6 -6 -6 -6 -6 -6 -6 -6 -6 -6 -6
-3 -3 -3 -3 -3 -3 -3 -3 -4 -4 -4 -4 -4 -4 -4 -4 -4 -5 -5 -5 -5 -5 -5 -6 -6 -6 -6 -6 -6 -6 -6 -6 -6 -6 -6 -6 -6 -6 -6 -6 -6 -6 -6 -6
-3 -3 -3 -3 -3 -3 -3 -4 -4 -4 -4 -4 -4 -4 -4 -5 -5 -5 -5 -5 -5 -5 -5 -5 -6 -6 -6 -6 -6 -6 -6 -6 -6 -6 -6 -6 -6 -6 -6 -6 -6 -6 -6 -6
-3 -3 -3 -3 -3 -4 -4 -4 -4 -4 -4 -4 -4 -4 -5 -5 -5 -5 -5 -5 -5 -5 -5 -6 -6 -6 -6 -6 -6 -6 -6 -6 -6 -6 -6 -6 -6 -6 -6 -6 -6 -6 -6 -6
-3 -4 -4 -4 -4 -4 -4 -4 -4 -4 -4 -4 -4 -5 -5 -5 -5 -5 -5 -5 -5 -5 -6 -6 -6 -6 -6 -6 -6 -6 -6 -6 -6 -6 -6 -6 -6 -6 -6 -6 -6 -6 -6 -6
Wind_Speed
5 4 3 5 7 6 8 8 8 8 9 12 8 6 6 4 3 3 4 4 4 4 5 4 5 5 4 5 5 4 4 4 5 4 4 4 4 4 3 3 3 3 3 3
3 2 3 5 8 9 9 8 9 9 12 9 5 4 4 4 4 4 5 5 5 5 5 5 5 5 5 5 5 4 4 5 5 4 4 4 4 4 3 3 3 2 3 3
3 3 3 7 8 9 7 7 8 11 10 5 4 5 6 6 5 5 5 5 5 5 5 6 6 5 5 5 5 4 4 4 4 4 4 4 4 3 3 3 3 3 4 3
1 3 5 7 2 6 7 8 9 8 7 5 7 6 6 6 6 5 5 5 5 5 5 6 5 5 4 4 4 4 4 5 5 5 5 4 3 3 3 3 3 4 4 4
2 2 8 8 3 4 5 6 7 9 8 6 4 4 5 4 3 4 5 5 5 5 5 5 5 4 4 4 3 4 4 5 5 4 4 3 3 3 3 3 3 3 3 3
3 3 6 6 2 2 3 6 4 5 6 4 1 2 5 3 3 4 4 3 4 4 4 5 5 4 3 4 4 4 4 5 5 4 4 3 4 3 3 3 3 3 3 2
4 5 8 6 2 3 2 6 3 4 5 5 6 6 5 4 4 3 3 4 4 4 4 4 5 3 3 4 4 5 4 4 4 4 3 3 3 3 3 3 2 2 2 2
5 5 8 3 4 5 7 3 2 3 4 5 6 5 4 4 4 4 4 4 4 3 4 5 4 3 3 5 5 4 4 3 4 4 3 2 2 2 2 2 1 1 1 2
9 8 4 4 6 5 3 3 4 3 4 4 4 5 4 4 4 4 4 4 4 4 4 5 4 3 4 5 4 4 3 3 4 4 3 2 2 2 2 1 1 1 1 2
5 8 7 6 6 5 4 5 5 5 4 4 5 5 5 4 4 4 4 4 3 3 4 5 4 3 4 4 4 3 3 3 3 3 3 3 2 2 2 1 1 1 2 2
6 7 6 6 6 7 6 5 5 4 4 4 4 5 5 4 5 4 4 4 3 3 4 5 5 4 4 3 3 2 3 3 3 3 2 2 2 2 2 2 2 2 2 2
8 6 5 7 5 4 4 5 5 4 4 3 4 5 4 4 4 4 4 4 4 4 4 4 4 4 4 3 2 2 2 2 2 2 2 2 2 3 4 3 3 4 3 3
7 5 6 6 5 3 4 5 4 4 4 4 3 3 3 4 4 4 4 3 4 4 4 4 3 4 4 3 2 1 1 2 2 2 2 2 2 2 3 4 5 5 4 4
6 4 4 5 5 5 4 3 2 2 2 2 2 2 2 3 3 3 4 4 3 3 3 3 3 4 4 3 2 2 2 2 2 2 2 2 2 2 2 2 3 4 5 5
7 7 7 5 3 3 2 1 1 2 2 2 2 2 2 3 4 4 4 3 2 2 3 3 3 4 3 2 2 2 2 1 1 1 1 1 1 2 2 2 2 3 3 4
5 5 5 4 4 3 2 3 3 4 3 3 3 3 3 3 3 3 3 2 1 3 3 3 3 3 3 2 1 2 2 3 2 1 1 1 1 1 2 2 2 2 3 3
5 5 4 4 5 4 4 5 5 5 4 4 4 3 2 2 2 3 3 2 2 3 3 2 3 3 2 2 1 1 2 2 3 2 1 1 1 1 2 2 2 2 2 3
8 8 7 6 5 5 5 4 4 4 4 4 3 2 2 2 2 3 3 2 2 3 3 2 2 2 2 2 1 1 1 1 1 1 1 1 1 1 1 2 2 2 2 3
6 6 6 5 5 5 5 4 4 3 3 2 2 2 2 2 2 2 2 1 2 3 3 3 3 2 2 2 2 1 1 1 1 2 1 2 2 2 1 1 2 2 2 2
3 4 4 4 3 4 4 3 3 2 2 2 2 1 1 2 2 1 1 1 2 2 3 2 2 2 2 2 2 1 1 1 1 1 2 1 2 2 1 2 2 2 2 2
3 3 3 3 3 2 3 3 3 3 2 2 3 2 2 2 2 1 0 2 3 2 2 2 1 1 1 1 2 1 1 1 1 1 2 1 2 2 2 2 2 2 2 2
3 3 3 3 2 2 1 2 3 2 2 2 2 1 1 1 1 1 2 2 3 3 2 1 1 2 2 2 1 1 1 1 1 1 2 2 2 2 2 2 2 2 2 2
3 3 3 3 3 2 0 1 2 2 2 2 2 2 2 2 2 1 2 2 2 2 2 1 2 2 2 1 1 1 1 1 1 2 2 2 2 2 2 3 2 2 2 2
2 2 2 2 2 2 1 1 1 1 1 1 2 2 2 1 1 1 2 3 3 3 2 2 2 2 2 1 1 1 1 1 2 2 2 2 2 2 2 3 3 3 3 3
2 2 2 3 3 2 2 1 0 0 0 0 1 1 1 1 2 2 1 2 2 2 2 2 3 2 1 1 1 1 2 2 2 2 2 2 2 2 3 3 3 3 3 2
2 2 2 3 2 2 2 2 1 1 1 0 1 1 1 1 1 1 1 1 1 2 2 2 2 2 1 1 2 2 2 2 2 2 2 3 3 3 3 3 3 3 3 2
1 1 1 1 1 2 2 2 2 2 2 2 1 1 1 1 1 1 1 1 1 1 1 1 1 1 1 1 2 2 2 2 2 2 2 2 2 2 3 3 2 2 2 2
Wind_Direction
246 239 200 225 231 205 202 208 217 244 251 267 268 267 272 272 281 287 293 299 294 302 306 306 309 309 309 312 313 310 308 300 292 294 295 300 305 303 286 269 261 255 258 267
281 248 231 257 247 223 223 225 236 258 271 268 273 275 280 279 274 273 283 286 289 296 302 304 302 303 307 309 310 309 302 297 296 298 301 305 307 304 296 285 273 267 257 253
264 314 339 274 235 205 210 212 201 231 247 277 291 277 266 264 255 256 271 282 286 291 293 295 298 295 293 297 302 303 298 296 299 297 296 296 297 293 284 278 267 259 256 249
249 24 248 247 225 187 209 238 221 237 255 259 259 274 269 249 233 254 273 278 282 289 295 298 302 303 295 299 302 301 299 298 301 301 299 299 297 287 280 273 264 259 260 260
159 242 278 289 247 186 200 265 223 229 258 272 294 317 282 235 228 257 270 272 272 277 286 296 300 300 308 308 305 301 297 299 302 300 299 299 296 288 281 278 276 272 268 256
157 202 247 258 260 181 128 277 244 215 241 251 151 288 269 263 287 286 288 286 282 288 299 300 301 303 309 306 310 302 301 302 305 302 297 292 287 283 283 279 273 274 273 261
188 226 261 258 242 123 174 260 276 229 231 215 216 237 256 272 284 281 287 290 289 291 296 296 302 306 305 304 300 302 307 310 315 315 306 303 303 301 302 296 284 264 266 266
174 209 253 222 143 188 229 278 264 257 246 238 252 265 265 266 277 287 293 294 294 294 297 301 304 302 301 299 301 312 316 320 322 324 323 331 321 315 312 302 300 289 284 294
198 218 246 193 206 233 239 254 261 258 264 252 257 264 268 267 273 281 282 284 289 288 298 304 304 292 288 298 313 321 325 324 321 329 336 343 332 320 316 320 332 327 338 320
248 261 260 252 254 263 245 251 265 254 253 243 250 259 268 274 277 284 287 286 288 294 300 303 301 299 288 299 314 317 317 320 323 334 340 345 333 320 315 315 323 329 328 321
251 274 297 277 253 259 263 262 266 268 255 242 241 257 259 268 276 279 289 295 292 288 290 294 301 305 308 311 313 313 317 323 333 335 330 339 344 333 318 307 306 300 291 292
231 227 219 258 261 252 247 256 255 259 273 263 237 251 263 267 272 274 281 291 297 296 293 294 304 311 314 315 310 311 321 331 333 334 333 340 349 355 359 349 348 337 334 331
231 235 230 254 264 243 237 252 258 245 241 262 270 254 260 271 275 281 285 291 288 286 288 293 307 311 314 315 317 314 305 318 325 332 336 340 343 344 345 357 4 358 354 352
237 234 251 246 249 255 247 256 260 265 256 246 261 273 267 278 286 285 281 282 283 285 292 297 306 309 313 318 322 324 319 316 321 320 323 326 326 328 331 339 345 345 346 348
238 226 232 246 252 256 238 212 234 269 280 285 272 263 267 271 278 285 288 294 300 303 304 310 316 315 322 326 335 336 331 324 327 324 325 325 325 330 333 331 328 329 339 347
246 236 225 224 236 241 227 214 227 250 257 262 268 267 267 268 275 288 298 298 292 299 303 311 311 316 330 345 355 347 342 341 340 337 338 336 336 334 331 329 328 330 333 334
218 232 225 236 242 242 235 231 228 236 245 250 258 265 278 295 305 305 306 304 290 290 299 303 302 316 335 346 352 344 341 342 349 350 345 335 333 331 327 326 320 319 319 333
222 225 217 214 220 230 239 237 230 233 241 250 252 245 245 253 268 283 299 322 341 338 326 309 306 325 340 340 341 345 345 339 338 340 336 337 338 332 327 325 320 316 322 334
224 220 218 216 213 210 218 225 228 232 237 223 218 230 243 257 263 275 292 330 333 318 314 316 327 347 338 334 343 358 353 338 342 345 344 342 342 335 332 323 317 314 319 328
227 214 206 211 208 202 208 214 212 219 220 204 210 229 265 279 275 276 282 289 279 274 282 309 332 339 327 326 344 355 346 335 334 334 335 331 329 330 328 323 318 318 319 319
217 207 198 198 206 209 202 195 191 206 219 202 202 218 239 268 271 255 275 308 305 307 311 325 343 320 313 331 355 8 355 339 326 315 317 319 322 321 320 321 318 312 307 309
205 197 199 192 183 205 216 193 187 194 202 210 216 211 216 261 283 296 276 262 279 309 329 315 307 312 328 348 7 355 338 323 313 308 311 312 311 310 310 311 307 304 301 298
201 196 195 191 185 188 211 189 183 187 201 212 211 214 222 234 236 247 288 290 290 303 318 294 301 319 341 6 2 329 312 306 304 303 304 304 302 301 301 301 298 297 296 296
193 191 186 165 139 139 169 257 238 210 216 236 233 223 211 231 282 263 255 285 307 314 311 303 320 330 349 351 310 297 291 288 290 294 297 297 297 296 296 294 293 292 289 290
179 174 166 158 165 185 193 181 71 56 52 337 301 274 251 227 236 268 285 288 301 321 316 307 318 328 336 295 285 280 279 275 277 285 290 292 292 292 292 291 288 287 287 287
179 186 194 203 197 188 179 173 184 206 196 273 312 307 309 305 254 265 282 289 292 309 312 302 299 305 294 282 280 280 280 287 291 287 281 283 286 285 287 290 292 287 286 284
156 162 157 158 191 185 181 182 188 207 210 206 250 277 277 279 274 280 280 287 300 306 304 302 294 287 282 286 288 286 284 284 283 281 282 284 287 286 288 291 293 295 296 291
Height
1496 1494 1496 1495 1495 1497 1499 1496 1496 1487 1483 1473 1471 1471 1469 1468 1467 1466 1465 1464 1462 1460 1458 1456 1454 1451 1449 1447 1445 1443 1441 1439 1438 1436 1435 1434 1433 1432 1431 1431 1431 1431 1431 1430
1496 1492 1494 1493 1489 1491 1492 1491 1490 1485 1480 1469 1469 1468 1467 1466 1465 1464 1462 1461 1460 1458 1455 1453 1451 1448 1446 1443 1441 1440 1438 1436 1434 1433 1432 1431 1429 1428 1427 1427 1427 1427 1427 1427
1497 1495 1492 1489 1481 1483 1484 1482 1482 1479 1472 1468 1468 1466 1464 1463 1462 1461 1460 1459 1457 1455 1453 1451 1448 1445 1443 1440 1438 1436 1434 1433 1431 1430 1429 1427 1426 1425 1424 1424 1424 1424 1423 1423
1500 1499 1495 1477 1473 1474 1476 1474 1473 1469 1466 1465 1464 1463 1462 1460 1459 1458 1457 1455 1454 1452 1450 1448 1445 1443 1440 1438 1435 1433 1431 1430 1428 1427 1425 1424 1423 1422 1421 1421 1420 1420 1420 1420
1503 1502 1491 1476 1471 1472 1474 1470 1465 1465 1464 1462 1462 1460 1458 1457 1456 1455 1454 1453 1451 1449 1447 1445 1442 1440 1437 1435 1432 1430 1429 1427 1425 1424 1422 1421 1420 1419 1418 1418 1417 1417 1417 1417
1502 1498 1489 1472 1468 1467 1470 1469 1460 1460 1460 1460 1460 1462 1456 1453 1453 1452 1451 1450 1448 1446 1444 1442 1439 1437 1434 1432 1429 1427 1426 1424 1422 1421 1419 1418 1417 1416 1416 1415 1414 1414 1414 1413
1499 1498 1483 1469 1466 1467 1473 1465 1458 1457 1456 1457 1457 1455 1453 1451 1450 1449 1448 1446 1445 1443 1441 1439 1436 1434 1431 1429 1427 1425 1423 1421 1419 1418 1416 1415 1414 1414 1413 1412 1411 1411 1410 1410
1496 1495 1481 1464 1465 1467 1462 1457 1455 1454 1454 1453 1452 1451 1449 1448 1447 1446 1444 1443 1441 1439 1437 1435 1433 1431 1429 1426 1425 1423 1420 1419 1417 1415 1414 1413 1412 1411 1410 1410 1409 1408 1408 1407
1479 1472 1462 1460 1459 1458 1457 1455 1454 1453 1451 1451 1449 1447 1446 1445 1444 1442 1441 1439 1438 1436 1434 1432 1430 1428 1426 1424 1422 1420 1418 1416 1415 1414 1412 1411 1410 1409 1409 1408 1407 1405 1405 1404
1472 1462 1458 1457 1455 1454 1454 1453 1451 1450 1449 1448 1446 1444 1443 1442 1441 1439 1437 1436 1434 1433 1431 1429 1427 1425 1424 1422 1420 1418 1416 1415 1413 1412 1411 1410 1409 1408 1407 1406 1405 1404 1403 1402
1467 1459 1455 1452 1451 1450 1450 1449 1447 1446 1445 1444 1443 1441 1440 1438 1437 1436 1434 1433 1431 1430 1428 1426 1424 1423 1421 1419 1418 1416 1414 1413 1412 1411 1409 1408 1407 1407 1405 1405 1404 1403 1402 1401
1458 1453 1453 1449 1448 1447 1446 1445 1444 1443 1441 1441 1440 1438 1437 1436 1434 1433 1431 1430 1428 1427 1425 1424 1422 1420 1419 1417 1416 1414 1412 1411 1410 1409 1408 1407 1406 1405 1404 1404 1403 1402 1402 1401
1449 1448 1447 1446 1445 1444 1443 1442 1441 1440 1439 1438 1437 1436 1434 1433 1431 1430 1429 1427 1426 1424 1423 1421 1420 1418 1417 1415 1414 1412 1411 1410 1409 1408 1407 1406 1405 1404 1403 1403 1402 1401 1400 1399
1445 1445 1443 1442 1441 1440 1440 1439 1438 1437 1436 1435 1434 1433 1432 1430 1429 1427 1426 1425 1424 1422 1421 1419 1418 1416 1415 1414 1412 1411 1410 1409 1408 1407 1406 1405 1404 1404 1402 1401 1400 1400 1400 1399
1440 1440 1439 1438 1437 1437 1436 1436 1435 1434 1433 1432 1431 1430 1429 1428 1426 1425 1424 1423 1422 1420 1419 1417 1416 1415 1414 1412 1411 1410 1409 1408 1407 1406 1405 1404 1404 1403 1402 1401 1400 1399 1398 1397
1435 1435 1435 1434 1433 1433 1433 1432 1431 1431 1430 1429 1429 1428 1427 1426 1425 1424 1422 1421 1420 1418 1417 1416 1414 1413 1412 1411 1410 1409 1408 1407 1406 1405 1404 1404 1403 1402 1401 1400 1399 1398 1397 1396
1430 1430 1430 1429 1429 1429 1429 1429 1429 1428 1428 1427 1426 1426 1425 1424 1423 1422 1421 1420 1419 1417 1416 1414 1413 1412 1411 1410 1409 1408 1407 1406 1405 1404 1403 1403 1402 1401 1400 1399 1398 1397 1396 1396
1425 1426 1426 1426 1426 1426 1426 1426 1426 1426 1425 1425 1425 1424 1423 1422 1421 1420 1419 1418 1417 1416 1415 1413 1412 1411 1410 1409 1408 1407 1406 1405 1404 1403 1402 1402 1401 1400 1399 1398 1397 1396 1396 1395
1421 1422 1422 1423 1423 1423 1423 1423 1423 1424 1423 1423 1423 1422 1421 1421 1420 1419 1418 1417 1415 1414 1413 1412 1411 1410 1409 1408 1407 1406 1405 1404 1403 1402 1402 1401 1400 1399 1398 1397 1397 1396 1395 1394
1418 1418 1419 1420 1420 1421 1421 1421 1421 1421 1421 1421 1421 1420 1420 1419 1419 1418 1416 1415 1414 1413 1412 1411 1410 1409 1408 1407 1406 1405 1404 1403 1402 1401 1400 1400 1399 1398 1397 1396 1395 1395 1394 1393
1415 1416 1416 1417 1418 1418 1419 1419 1419 1419 1420 1420 1419 1419 1418 1418 1417 1416 1415 1414 1413 1412 1411 1410 1409 1408 1407 1406 1405 1404 1403 1402 1401 1401 1400 1399 1398 1397 1396 1395 1395 1394 1393 1392
1413 1414 1414 1415 1416 1416 1417 1417 1417 1418 1418 1418 1418 1418 1417 1416 1416 1415 1414 1413 1412 1411 1410 1409 1408 1407 1406 1406 1404 1404 1403 1402 1401 1400 1399 1398 1397 1396 1395 1394 1393 1393 1392 1391
1412 1412 1413 1414 1414 1415 1415 1415 1416 1416 1416 1416 1416 1416 1416 1415 1414 1413 1412 1412 1411 1410 1409 1408 1407 1406 1406 1405 1404 1403 1402 1401 1400 1399 1398 1397 1396 1395 1394 1393 1392 1391 1390 1390
1411 1411 1412 1413 1413 1413 1414 1414 1415 1415 1415 1415 1415 1415 1414 1413 1413 1412 1411 1410 1409 1408 1407 1407 1406 1405 1405 1404 1403 1402 1401 1400 1399 1398 1397 1396 1395 1394 1393 1392 1391 1390 1389 1388
1410 1410 1411 1411 1412 1412 1413 1413 1413 1413 1414 1414 1414 1413 1413 1412 1412 1411 1410 1409 1408 1407 1406 1405 1405 1404 1403 1402 1401 1400 1399 1398 1397 1396 1395 1395 1394 1393 1392 1391 1390 1389 1388 1387
1409 1409 1410 1411 1411 1411 1412 1412 1412 1412 1412 1412 1412 1412 1411 1411 1410 1410 1409 1408 1407 1406 1405 1404 1403 1403 1402 1401 1400 1399 1398 1397 1396 1395 1394 1393 1392 1391 1390 1390 1389 1388 1387 1387
1408 1408 1409 1409 1410 1411 1411 1411 1411 1411 1411 1411 1410 1410 1410 1409 1409 1408 1408 1407 1406 1405 1404 1403 1402 1401 1401 1399 1398 1397 1397 1396 1395 1394 1393 1392 1391 1390 1389 1388 1388 1387 1386 1386